Volver al catálogo

TITAN 3A TRANSTAGE R/B

ActivoMEO
NORAD 1001·ROCKET BODY·🇺🇸 United States

Lanzado Feb 11, 1965 desde Cape Canaveral Space Force Station

Loading…

Próximos Pases (próximas 24 horas)

TLE

ActualizadoSource: Space-Track

Época: Sep 14, 2026, 00:30 UTC

1 01001U 65008A   26257.02090024  .00000005  00000-0 -42155-3 0  9996
2 01001  32.1437 256.0816 0016977 227.6953 132.2106  9.90721512230282

Sigue TITAN 3A TRANSTAGE R/B en tiempo real con AllMySat

Download on the App Store